NU3S-7 Weather Reports


Display with metric or nautical units.
time (UTC)temp
F
wind
direction
speed
MPH
gust
MPH
rain 1hr
in
rain 24hr
in
rain mn
in
humidity
%
barometer
mb
20260831054252 71 0 0.0 0.0 0.00 0.00 0.00 95 1019.5
20260831054138 71 0 0.0 0.0 0.00 0.00 0.00 95 1019.5
20260831052950 71 0 0.0 0.0 0.00 0.00 0.00 95 1019.6
20260831052913 71 0 0.0 0.0 0.00 0.00 0.00 95 1019.6
20260831043910 72 125 0.0 3.0 0.00 0.00 0.00 94 1019.7
20260831040909 72 0 0.0 0.0 0.00 0.00 0.00 93 1019.9
20260831032904 72 114 0.0 2.0 0.00 0.00 0.00 93 1020.3
20260831031904 72 86 1.0 3.0 0.00 0.00 0.00 93 1020.4
20260831030903 73 0 0.0 0.0 0.00 0.00 0.00 93 1020.6
20260831023859 73 0 0.0 0.0 0.00 0.00 0.00 91 1020.5
20260831020858 73 0 0.0 0.0 0.00 0.00 0.00 91 1020.3
20260831015857 73 0 0.0 0.0 0.00 0.00 0.00 91 1020.1
20260831012856 74 0 0.0 0.0 0.00 0.00 0.00 89 1019.4
20260831011856 74 34 0.0 2.0 0.00 0.00 0.00 88 1019.3
20260831010926 74 0 0.0 0.0 0.00 0.00 0.00 88 1019.2
20260831010854 74 0 0.0 0.0 0.00 0.00 0.00 88 1019.2
20260831005957 74 174 1.0 5.0 0.00 0.00 0.00 84 1018.9
20260831005854 74 174 1.0 5.0 0.00 0.00 0.00 84 1018.9
20260831004853 76 0 0.0 0.0 0.00 0.00 0.00 82 1019.1
20260831004130 76 0 0.0 0.0 0.00 0.00 0.00 82 1018.8
20260831003853 76 0 0.0 0.0 0.00 0.00 0.00 82 1018.8
20260831002853 77 107 0.0 1.0 0.00 0.00 0.00 80 1018.7
20260831001850 77 96 0.0 2.0 0.00 0.00 0.00 81 1018.6
20260831001452 76 37 0.0 2.0 0.00 0.00 0.00 81 1018.4
20260831000850 76 37 0.0 2.0 0.00 0.00 0.00 81 1018.4
20260830235850 77 0 0.0 0.0 0.00 0.00 0.00 81 1018.5
20260830234849 77 35 1.0 4.0 0.00 0.00 0.00 80 1018.4
20260830232849 78 100 1.0 5.0 0.00 0.00 0.00 80 1018.3
20260830231848 79 111 0.0 4.0 0.00 0.00 0.00 79 1018.4
20260830230848 79 96 0.0 2.0 0.00 0.00 0.00 80 1018.3
20260830230021 80 0 0.0 0.0 0.00 0.00 0.00 80 1018.3
20260830225847 80 0 0.0 0.0 0.00 0.00 0.00 80 1018.3
20260830223845 80 0 0.0 0.0 0.00 0.00 0.00 79 1018.2
20260830222943 80 32 0.0 2.0 0.00 0.00 0.00 79 1018.2
20260830222843 80 32 0.0 2.0 0.00 0.00 0.00 79 1018.2
20260830220843 81 0 0.0 0.0 0.00 0.00 0.00 78 1018.3
20260830215902 81 222 0.0 2.0 0.00 0.00 0.00 80 1018.4
20260830214842 81 314 2.0 5.0 0.00 0.00 0.00 81 1018.4
20260830214005 80 342 2.0 4.0 0.00 0.00 0.00 80 1018.4
20260830213841 80 342 2.0 4.0 0.00 0.00 0.00 80 1018.4
20260830212915 81 314 1.0 4.0 0.00 0.00 0.00 78 1018.4
20260830212841 81 314 1.0 4.0 0.00 0.00 0.00 78 1018.4
20260830211942 82 339 2.0 6.0 0.00 0.00 0.00 77 1018.4
20260830211841 82 339 2.0 6.0 0.00 0.00 0.00 77 1018.4
20260830210838 81 350 1.0 7.0 0.00 0.00 0.00 76 1018.5
20260830205837 82 49 1.0 5.0 0.00 0.00 0.00 74 1018.5
20260830204837 84 318 1.0 4.0 0.00 0.00 0.00 72 1018.5
20260830202835 83 277 2.0 6.0 0.00 0.00 0.00 73 1018.6
20260830201835 83 65 1.0 4.0 0.00 0.00 0.00 75 1018.6
20260830200835 83 278 2.0 6.0 0.00 0.00 0.00 73 1018.7
20260830195834 82 291 1.0 5.0 0.00 0.00 0.00 71 1018.8
20260830192832 85 301 2.0 6.0 0.00 0.00 0.00 68 1018.9
20260830191958 85 276 5.0 10.0 0.00 0.00 0.00 68 1019.1
20260830191832 85 276 5.0 10.0 0.00 0.00 0.00 68 1019.1
20260830190831 85 266 2.0 5.0 0.00 0.00 0.00 67 1019.2
20260830185830 87 325 2.0 6.0 0.00 0.00 0.00 66 1019.4
20260830184830 86 295 3.0 8.0 0.00 0.00 0.00 69 1019.5
20260830183830 84 253 3.0 7.0 0.00 0.00 0.00 70 1019.6
20260830182829 84 308 4.0 9.0 0.00 0.00 0.00 69 1019.7
20260830181829 84 323 3.0 8.0 0.00 0.00 0.00 69 1019.8
20260830180829 83 333 4.0 10.0 0.00 0.00 0.00 69 1019.9
20260830175828 84 318 3.0 8.0 0.00 0.00 0.00 70 1020.0
20260830173828 84 357 4.0 9.0 0.00 0.00 0.00 69 1020.4
20260830171924 83 1 3.0 9.0 0.00 0.00 0.00 75 1020.5
20260830171824 83 1 3.0 9.0 0.00 0.00 0.00 75 1020.5
20260830165818 83 267 3.0 8.0 0.00 0.00 0.00 79 1020.6
20260830164848 81 311 2.0 8.0 0.00 0.00 0.00 82 1020.6
20260830160951 81 285 2.0 6.0 0.00 0.00 0.00 85 1020.7
20260830160816 81 285 2.0 6.0 0.00 0.00 0.00 85 1020.7
20260830150932 80 285 1.0 5.0 0.00 0.00 0.00 89 1020.7
20260830150811 80 285 1.0 5.0 0.00 0.00 0.00 89 1020.7
20260830150012 79 176 1.0 4.0 0.00 0.00 0.00 90 1020.7
20260830145811 79 176 1.0 4.0 0.00 0.00 0.00 90 1020.7
20260830144955 79 283 1.0 3.0 0.00 0.00 0.00 91 1020.6
20260830144811 79 283 1.0 3.0 0.00 0.00 0.00 91 1020.6
20260830143810 77 170 0.0 4.0 0.00 0.00 0.00 94 1020.6
20260830142809 76 173 0.0 2.0 0.00 0.00 0.00 95 1020.6
20260830133807 72 198 0.0 1.0 0.00 0.00 0.00 97 1020.4
20260830133006 72 191 0.0 0.0 0.00 0.00 0.00 98 1020.5
20260830132807 72 191 0.0 0.0 0.00 0.00 0.00 98 1020.5
20260830130806 70 0 0.0 0.0 0.00 0.00 0.00 100 1020.5
20260830125804 68 0 0.0 0.0 0.00 0.00 0.00 100 1020.5
20260830123800 66 0 0.0 0.0 0.00 0.00 0.00 100 1020.6
20260830122915 65 0 0.0 0.0 0.00 0.00 0.00 100 1020.6
20260830122800 65 0 0.0 0.0 0.00 0.00 0.00 100 1020.6
20260830121800 65 0 0.0 0.0 0.00 0.00 0.00 100 1020.6
20260830115948 64 0 0.0 0.0 0.00 0.00 0.00 100 1020.5
20260830115759 64 0 0.0 0.0 0.00 0.00 0.00 100 1020.5
20260830114759 64 0 0.0 0.0 0.00 0.00 0.00 100 1020.5
20260830113832 64 0 0.0 0.0 0.00 0.00 0.00 100 1020.5
20260830113757 64 0 0.0 0.0 0.00 0.00 0.00 100 1020.5
20260830112844 63 0 0.0 0.0 0.00 0.00 0.00 100 1020.5
20260830112754 63 0 0.0 0.0 0.00 0.00 0.00 100 1020.5
20260830110844 63 0 0.0 0.0 0.00 0.00 0.00 100 1020.6
20260830110749 63 0 0.0 0.0 0.00 0.00 0.00 100 1020.6
20260830110012 64 0 0.0 0.0 0.00 0.00 0.00 100 1020.5
20260830105749 64 0 0.0 0.0 0.00 0.00 0.00 100 1020.5
20260830104015 63 0 0.0 0.0 0.00 0.00 0.00 100 1020.4
20260830103748 63 0 0.0 0.0 0.00 0.00 0.00 100 1020.4
20260830101747 63 0 0.0 0.0 0.00 0.00 0.00 100 1020.3
20260830100951 63 0 0.0 0.0 0.00 0.00 0.00 100 1020.3
20260830100747 63 0 0.0 0.0 0.00 0.00 0.00 100 1020.3
20260830095842 63 0 0.0 0.0 0.00 0.00 0.00 100 1020.4
20260830095746 63 0 0.0 0.0 0.00 0.00 0.00 100 1020.4
20260830093746 63 0 0.0 0.0 0.00 0.00 0.00 100 1020.4
20260830090856 62 0 0.0 0.0 0.00 0.00 0.00 100 1020.3
20260830090743 62 0 0.0 0.0 0.00 0.00 0.00 100 1020.3
20260830085924 63 0 0.0 0.0 0.00 0.00 0.00 100 1020.4
20260830085742 63 0 0.0 0.0 0.00 0.00 0.00 100 1020.4
20260830083958 63 0 0.0 0.0 0.00 0.00 0.00 100 1020.4
20260830083740 63 0 0.0 0.0 0.00 0.00 0.00 100 1020.4
20260830082741 63 0 0.0 0.0 0.00 0.00 0.00 100 1020.4
20260830081822 63 0 0.0 0.0 0.00 0.00 0.00 100 1020.4
20260830073823 62 0 0.0 0.0 0.00 0.00 0.00 100 1020.6
20260830073731 62 0 0.0 0.0 0.00 0.00 0.00 100 1020.6
20260830070729 62 0 0.0 0.0 0.00 0.00 0.00 100 1020.7
20260830065728 62 0 0.0 0.0 0.00 0.00 0.00 100 1020.6
20260830064728 62 0 0.0 0.0 0.00 0.00 0.00 100 1020.6
20260830063727 62 0 0.0 0.0 0.00 0.00 0.00 100 1020.6
20260830062727 62 0 0.0 0.0 0.00 0.00 0.00 100 1020.6
20260830061727 63 0 0.0 0.0 0.00 0.00 0.00 100 1020.6
20260830060726 63 0 0.0 0.0 0.00 0.00 0.00 100 1020.6